Home > Weather > Miramichi > Past weeks

Flag for Canada Past Weather in Miramichi, New Brunswick, Canada — Yesterday and Last 2 Weeks

Now
66 °F

Clear.


Feels Like: 66 °F
Forecast: 55 / 74 °F
Wind: 7 mph from West

Location: Bathurst Airport

Current Time: Aug 27, 2016 at 12:11:20 AM

Latest Report: Aug 26, 2016 at 11:00 PM


Visibility: 15 mi

Pressure: 29.84 "Hg

Humidity: 88%

Dew Point: 63 °F

Location of MiramichiLocation

Past Weather in Miramichi — Graph

°F

Miramichi Temperature Yesterday

Maximum temperature yesterday: 84 °F (at 3:00 PM)
Minimum temperature yesterday: 64 °F (at 4:00 AM)
Average temperature yesterday: 72 °F

High & Low Weather Summary for the Past Weeks

 TemperatureHumidityPressure
High84 °F (Aug 26, 3:00 PM)100% (Aug 14, 6:00 AM)30.15 "Hg (Aug 14, 6:00 AM)
Low45 °F (Aug 13, 5:00 AM)38% (Aug 13, 4:00 PM)29.66 "Hg (Aug 22, 7:00 PM)
Average65 °F81%29.91 "Hg
* Reported Aug 11 11:00 PM — Aug 26 11:00 PM, Miramichi, Weather by CustomWeather, © 2016

Note: Actual official high and low records may vary slightly from our data, if they occured in-between our weather recording intervals... More about our weather records

Advertising

Miramichi Weather History for the Previous 24 Hours

Scroll right to see more
 ConditionsComfort  
Time TempWeatherWind HumidityBarometerVisibility
11:00 PM
Fri, Aug 26
66 °FClear.7 mph88%29.84 "Hg15 mi
10:00 PM66 °FClear.7 mph88%29.83 "Hg15 mi
9:00 PM68 °FOvercast.6 mph88%29.83 "Hg15 mi
8:00 PM68 °FThunderstorms. Scattered clouds.6 mph88%29.81 "Hg15 mi
7:00 PM77 °FThunderstorms. Partly sunny.2 mph69%29.75 "Hg15 mi
6:00 PM77 °FThunderstorms. Partly sunny.2 mph79%29.73 "Hg15 mi
5:00 PM77 °FScattered clouds.6 mph74%29.73 "Hg15 mi
4:00 PM84 °FBroken clouds.10 mph51%29.74 "Hg15 mi
3:00 PM84 °FPassing clouds.7 mph58%29.76 "Hg15 mi
2:00 PM82 °FPartly sunny.10 mph62%29.78 "Hg15 mi
1:00 PM82 °FPartly sunny.10 mph62%29.80 "Hg10 mi
12:00 PM77 °FBroken clouds.2 mph79%29.81 "Hg7 mi
11:49 AM77 °FFog.3 mph79%29.82 "Hg6 mi
11:00 AM75 °FFog.3 mph83%29.83 "Hg6 mi
10:00 AM72 °FFog.2 mph94%29.83 "Hg4 mi
9:00 AM68 °FFog.3 mph94%29.83 "Hg4 mi
8:00 AM66 °FFog.5 mph94%29.84 "Hg4 mi
7:00 AM64 °FFog.5 mph100%29.83 "Hg3 mi
6:00 AM64 °FFog.5 mph100%29.82 "Hg3 mi
5:00 AM66 °FFog.5 mph94%29.82 "Hg2 mi
4:00 AM64 °FFog.2 mph94%29.81 "Hg2 mi
3:00 AM66 °FFog.No wind100%29.80 "Hg3 mi
2:00 AM66 °FFog.3 mph100%29.81 "Hg3 mi
1:00 AM66 °FFog.2 mph100%29.81 "Hg3 mi
12:00 AM68 °FFog.No wind100%29.81 "Hg4 mi
Weather by CustomWeather, © 2016

See weather overviewHow to use our weather pages